When you browse on this site, cookies collect data to enhance your experience and personalize the content and advertising you see.
Visit our Privacy Policy to learn more. By continuing to use the site, you agree to this use of cookies and data.
  • In Hungary
  • List of Countries
  • For 7 days
  • Water Temperature
  • Weather Map
  • News
  • Weather Widgets
  • user-avatar
    Login

    Hourly Weather Yablun'ka

    Today, 15 December, Sunday

    Time Temperature Precipitation Wind Pressure Humidity
    00:00 +1°C° 0 mm 6 mps 705 mmHg 84%
    01:00 0°C° 0 mm 8 mps 706 mmHg 91%
    02:00 -1°C° 0 mm 7 mps 707 mmHg 89%
    03:00 -1°C° 0 mm 6 mps 707 mmHg 88%
    04:00 0°C° 0 mm 5 mps 707 mmHg 88%
    05:00 -1°C° 0 mm 7 mps 707 mmHg 86%
    06:00 -1°C° 0 mm 7 mps 708 mmHg 85%
    07:00 -1°C° 0 mm 8 mps 708 mmHg 85%
    08:00 -1°C° 0 mm 8 mps 709 mmHg 85%
    09:00 0°C° 0 mm 7 mps 709 mmHg 85%
    10:00 +1°C° 0 mm 9 mps 709 mmHg 85%
    11:00 +1°C° 0 mm 10 mps 710 mmHg 84%
    12:00 +2°C° 0 mm 9 mps 710 mmHg 80%
    13:00 +2°C° 0 mm 9 mps 711 mmHg 77%
    14:00 +3°C° 0 mm 9 mps 711 mmHg 80%
    15:00 +3°C° 0 mm 7 mps 712 mmHg 84%
    16:00 +3°C° 0 mm 7 mps 711 mmHg 82%
    17:00 +2°C° 0 mm 11 mps 711 mmHg 80%
    18:00 +2°C° 0 mm 9 mps 711 mmHg 78%
    19:00 +2°C° 0 mm 8 mps 711 mmHg 79%
    20:00 +2°C° 0 mm 8 mps 712 mmHg 77%
    21:00 +3°C° 0 mm 9 mps 712 mmHg 71%
    22:00 +3°C° 0 mm 9 mps 712 mmHg 67%
    23:00 +3°C° 0 mm 10 mps 713 mmHg 70%

    Tomorrow, 16 December, Monday

    Time Temperature Precipitation Wind Pressure Humidity
    00:00 +3°C° 0 mm 10 mps 713 mmHg 75%
    01:00 +3°C° 0 mm 9 mps 713 mmHg 79%
    02:00 +5°C° 0 mm 9 mps 713 mmHg 83%
    03:00 +5°C° 0 mm 8 mps 714 mmHg 85%
    04:00 +5°C° 0 mm 8 mps 714 mmHg 87%
    05:00 +5°C° 0 mm 8 mps 714 mmHg 88%
    06:00 +5°C° 0 mm 7 mps 715 mmHg 88%
    07:00 +7°C° 0 mm 5 mps 715 mmHg 84%
    08:00 +6°C° 0 mm 4 mps 716 mmHg 85%
    09:00 +6°C° 0 mm 4 mps 716 mmHg 87%
    10:00 +7°C° 0 mm 5 mps 716 mmHg 87%
    11:00 +8°C° 0 mm 6 mps 717 mmHg 88%
    12:00 +8°C° 0 mm 7 mps 717 mmHg 87%
    13:00 +9°C° 0 mm 7 mps 717 mmHg 86%
    14:00 +9°C° 0 mm 7 mps 716 mmHg 86%
    15:00 +7°C° 0 mm 8 mps 716 mmHg 87%
    16:00 +6°C° 0 mm 7 mps 716 mmHg 90%
    17:00 +7°C° 0 mm 5 mps 716 mmHg 90%
    18:00 +8°C° 0 mm 3 mps 716 mmHg 90%
    19:00 +7°C° 0 mm 3 mps 716 mmHg 89%
    20:00 +7°C° 0 mm 3 mps 716 mmHg 89%
    21:00 +7°C° 0 mm 3 mps 716 mmHg 88%
    22:00 +7°C° 0 mm 3 mps 716 mmHg 87%
    23:00 +7°C° 0 mm 3 mps 716 mmHg 88%

    Day after tomorrow, 17 December, Tuesday

    Time Temperature Precipitation Wind Pressure Humidity
    00:00 +7°C° 0 mm 3 mps 715 mmHg 89%
    01:00 +7°C° 0 mm 3 mps 715 mmHg 89%
    02:00 +7°C° 0 mm 3 mps 715 mmHg 89%
    03:00 +7°C° 0 mm 3 mps 715 mmHg 88%
    04:00 +7°C° 0 mm 2 mps 714 mmHg 87%
    05:00 +7°C° 0 mm 3 mps 714 mmHg 85%
    06:00 +6°C° 0 mm 4 mps 714 mmHg 82%
    07:00 +7°C° 0 mm 5 mps 713 mmHg 80%
    08:00 +7°C° 0 mm 5 mps 713 mmHg 79%
    09:00 +7°C° 0 mm 4 mps 713 mmHg 79%
    10:00 +8°C° 0 mm 4 mps 714 mmHg 79%
    11:00 +8°C° 0 mm 4 mps 714 mmHg 78%
    12:00 +10°C° 0 mm 4 mps 714 mmHg 82%
    13:00 +10°C° 0 mm 3 mps 714 mmHg 87%
    14:00 +10°C° 0 mm 3 mps 714 mmHg 88%
    15:00 +10°C° 0 mm 2 mps 714 mmHg 90%
    16:00 +10°C° 0 mm 2 mps 714 mmHg 87%
    17:00 +11°C° 0 mm 1 mps 715 mmHg 81%
    18:00 +11°C° 0 mm 1 mps 715 mmHg 79%
    19:00 +11°C° 0 mm 1 mps 715 mmHg 77%
    20:00 +11°C° 0 mm 1 mps 715 mmHg 74%
    21:00 +10°C° 0 mm 2 mps 715 mmHg 72%
    22:00 +10°C° 0 mm 3 mps 716 mmHg 70%
    23:00 +10°C° 0 mm 4 mps 716 mmHg 71%

    18 December, Wednesday

    Time Temperature Precipitation Wind Pressure Humidity
    00:00 +10°C° 0 mm 4 mps 716 mmHg 71%
    01:00 +9°C° 0 mm 5 mps 716 mmHg 71%
    02:00 +10°C° 0 mm 4 mps 716 mmHg 73%
    03:00 +9°C° 0 mm 5 mps 716 mmHg 73%
    04:00 +9°C° 0 mm 5 mps 716 mmHg 74%
    05:00 +9°C° 0 mm 5 mps 716 mmHg 73%
    06:00 +9°C° 0 mm 5 mps 716 mmHg 72%
    07:00 +9°C° 0 mm 5 mps 716 mmHg 71%
    08:00 +11°C° 0 mm 4 mps 716 mmHg 68%
    09:00 +11°C° 0 mm 4 mps 716 mmHg 67%
    10:00 +10°C° 0 mm 3 mps 716 mmHg 69%
    11:00 +10°C° 0 mm 2 mps 716 mmHg 72%
    12:00 +12°C° 0 mm 2 mps 716 mmHg 76%
    13:00 +12°C° 0 mm 2 mps 716 mmHg 80%
    14:00 +12°C° 0 mm 2 mps 716 mmHg 82%

    19 December, Thursday

    Time Temperature Precipitation Wind Pressure Humidity

    20 December, Friday

    Time Temperature Precipitation Wind Pressure Humidity
    Show more